Date String (YYYY-MM-DD hh:mm:ss) UTC,Instrument flags,absolute air pressure of the measurement (hPa),sample flow rate (lpm),inlet stack bypass flow (lpm),air temperature of the measurement (°C),ambient temperature measured by the external sensor (°C),aerosol sample conditioner tube jacket temperature (°C),OPC LED temperature (°C),internal box temperature (°C),relative humidity of the measurement (%),span deviation,mass concentration of particles derived from Lorenz-Mie calculation of OPC scattering (μg/m³),mass concentration of particles derived from Lorenz-Mie calculation of OPC scattering (μg/m³),mass concentration of particles derived from Lorenz-Mie calculation of OPC scattering (μg/m³)
DateTimeUTC,F1_M11,P_M11,Q1_M11,Q2_M11,T1_M11,T2_M11,T3_M11,T4_M11,T5_M11,U1_M11,ZSPAN_M11,X2_M11,X0_M11,X1_M11
2024-05-01 18:00:00,SystemResetWarning,0820.6,4.99,000.00,026.4,025.8,000.0,034.7,028.3,015.0,0000.0,0004.76,0014.59,0003.36
2024-05-01 18:01:00,SystemResetWarning,0820.6,5.00,000.00,026.4,025.1,000.0,034.7,027.8,015.1,0000.0,0004.76,0014.64,0003.36
2024-05-01 18:02:00,SystemResetWarning,0820.9,5.00,000.00,026.0,023.1,000.0,034.8,026.7,015.6,0000.0,0004.70,0013.66,0003.36
2024-05-01 18:03:00,SystemResetWarning,0820.5,5.01,000.00,025.6,022.5,000.0,034.7,026.3,015.9,0000.0,0004.66,0013.86,0003.36
2024-05-01 18:04:00,SystemResetWarning,0820.7,5.00,000.00,025.5,022.8,000.0,034.6,026.4,015.9,0000.0,0004.73,0014.21,0003.38
2024-05-01 18:05:00,SystemResetWarning,0820.9,4.98,000.00,025.4,023.2,000.0,034.4,026.7,016.2,0000.0,0004.76,0014.39,0003.38
2024-05-01 18:06:00,SystemResetWarning,0820.8,5.02,000.00,025.5,023.5,000.0,034.3,026.9,016.2,0000.0,0004.76,0014.87,0003.39
2024-05-01 18:07:00,SystemResetWarning,0820.8,5.00,000.00,025.5,023.8,000.0,034.3,027.1,015.8,0000.0,0004.81,0014.88,0003.40
2024-05-01 18:08:00,SystemResetWarning,0820.8,4.99,000.00,025.5,024.0,000.0,034.2,027.2,016.2,0000.0,0004.82,0014.32,0003.42
2024-05-01 18:09:00,SystemResetWarning,0820.9,5.00,000.00,025.6,024.3,000.0,034.2,027.3,015.8,0000.0,0004.86,0015.34,0003.43
2024-05-01 18:10:00,SystemResetWarning,0820.9,5.00,000.00,025.6,024.5,000.0,034.2,027.4,015.8,0000.0,0004.88,0015.91,0003.45
2024-05-01 18:11:00,SystemResetWarning,0820.9,5.00,000.00,025.7,024.6,000.0,034.2,027.5,015.8,0000.0,0004.88,0016.09,0003.47
2024-05-01 18:12:00,SystemResetWarning,0820.8,5.00,000.00,025.7,024.8,000.0,034.2,027.6,015.5,0000.0,0004.90,0015.29,0003.48
2024-05-01 18:13:00,SystemResetWarning,0820.9,5.00,000.00,025.7,024.9,000.0,034.2,027.6,015.6,0000.0,0004.96,0015.03,0003.51
2024-05-01 18:14:00,SystemResetWarning,0820.9,4.99,000.00,025.8,025.0,000.0,034.2,027.7,015.6,0000.0,0005.04,0014.93,0003.54
2024-05-01 18:15:00,SystemResetWarning,0820.8,5.00,000.00,025.8,025.1,000.0,034.2,027.7,015.6,0000.0,0005.03,0014.65,0003.55
2024-05-01 18:16:00,SystemResetWarning,0820.8,5.01,000.00,025.9,025.2,000.0,034.2,027.8,015.4,0000.0,0005.00,0014.18,0003.56
2024-05-01 18:17:00,SystemResetWarning,0820.7,5.00,000.00,025.9,025.3,000.0,034.2,027.8,015.6,0000.0,0004.99,0014.00,0003.57
2024-05-01 18:18:00,SystemResetWarning,0820.7,5.00,000.00,026.0,025.4,000.0,034.3,027.9,016.2,0000.0,0004.97,0014.12,0003.57
2024-05-01 18:19:00,SystemResetWarning,0820.7,5.01,000.00,026.0,025.4,000.0,034.3,027.9,016.5,0000.0,0005.07,0013.91,0003.60
2024-05-01 18:20:00,SystemResetWarning,0820.7,5.00,000.00,026.1,025.5,000.0,034.3,027.9,016.5,0000.0,0005.11,0012.67,0003.63
2024-05-01 18:21:00,SystemResetWarning,0820.8,5.00,000.00,026.1,025.5,000.0,034.3,028.0,016.4,0000.0,0005.15,0012.28,0003.67
2024-05-01 18:22:00,SystemResetWarning,0820.8,5.00,000.00,026.1,025.6,000.0,034.4,028.0,016.4,0000.0,0005.15,0012.27,0003.70
2024-05-01 18:23:00,SystemResetWarning,0820.6,5.00,000.00,026.2,025.6,000.0,034.4,028.0,016.3,0000.0,0005.19,0012.59,0003.74
2024-05-01 18:24:00,SystemResetWarning,0820.9,5.00,000.00,026.2,025.5,000.0,034.4,027.9,016.4,0000.0,0005.24,0012.89,0003.77
2024-05-01 18:25:00,SystemResetWarning,0820.5,4.98,000.00,025.9,023.6,000.0,034.5,026.9,016.4,0000.0,0005.22,0013.91,0003.81
2024-05-01 18:26:00,SystemResetWarning,0820.4,5.01,000.00,025.5,022.1,000.0,034.4,026.0,016.8,0000.0,0005.22,0014.47,0003.86
2024-05-01 18:27:00,SystemResetWarning,0820.4,5.01,000.00,025.2,022.2,000.0,034.3,025.9,016.9,0000.0,0005.25,0014.96,0003.89
2024-05-01 18:28:00,SystemResetWarning,0820.4,5.00,000.00,025.1,022.6,000.0,034.2,026.2,017.0,0000.0,0005.28,0014.94,0003.92
2024-05-01 18:29:00,SystemResetWarning,0820.7,5.00,000.00,025.1,022.9,000.0,034.0,026.5,017.1,0000.0,0005.27,0014.56,0003.95
2024-05-01 18:30:00,SystemResetWarning,0821.0,5.01,000.00,025.2,023.3,000.0,034.0,026.7,016.9,0000.0,0005.24,0015.25,0003.93
2024-05-01 18:31:00,SystemResetWarning,0820.7,5.00,000.00,025.2,023.6,000.0,033.9,026.8,016.9,0000.0,0005.25,0017.70,0003.93
2024-05-01 18:32:00,SystemResetWarning,0820.5,5.00,000.00,025.3,023.9,000.0,033.9,027.0,016.8,0000.0,0005.28,0018.02,0003.91
2024-05-01 18:33:00,SystemResetWarning,0820.7,5.00,000.00,025.3,024.1,000.0,033.9,027.1,016.7,0000.0,0005.29,0019.66,0003.89
2024-05-01 18:34:00,SystemResetWarning,0820.3,5.00,000.00,025.4,024.3,000.0,033.9,027.2,016.8,0000.0,0005.29,0020.74,0003.86
2024-05-01 18:35:00,SystemResetWarning,0820.3,5.00,000.00,025.4,024.5,000.0,033.9,027.2,017.1,0000.0,0005.22,0020.99,0003.81
2024-05-01 18:36:00,SystemResetWarning,0820.2,5.00,000.00,025.5,024.6,000.0,033.9,027.3,016.7,0000.0,0005.19,0019.63,0003.78
2024-05-01 18:37:00,SystemResetWarning,0820.3,5.00,000.00,025.5,024.8,000.0,033.9,027.4,016.5,0000.0,0005.21,0019.86,0003.75
2024-05-01 18:38:00,SystemResetWarning,0820.3,5.00,000.00,025.6,024.9,000.0,033.9,027.5,016.2,0000.0,0005.24,0020.38,0003.73
2024-05-01 18:39:00,SystemResetWarning,0820.4,5.01,000.00,025.6,025.0,000.0,033.9,027.5,016.1,0000.0,0005.24,0020.63,0003.73
2024-05-01 18:40:00,SystemResetWarning,0820.4,4.99,000.00,025.7,025.1,000.0,033.9,027.6,016.1,0000.0,0005.29,0021.08,0003.74
2024-05-01 18:41:00,SystemResetWarning,0820.3,5.00,000.00,025.7,025.1,000.0,034.0,027.6,016.3,0000.0,0005.20,0021.58,0003.75
2024-05-01 18:42:00,SystemResetWarning,0820.3,5.00,000.00,025.8,025.2,000.0,034.0,027.7,016.2,0000.0,0005.17,0020.22,0003.76
2024-05-01 18:43:00,SystemResetWarning,0820.3,5.00,000.00,025.8,025.3,000.0,034.0,027.8,015.9,0000.0,0005.14,0019.29,0003.77
2024-05-01 18:44:00,SystemResetWarning,0820.4,5.00,000.00,025.9,025.3,000.0,034.1,027.8,016.0,0000.0,0005.16,0018.99,0003.78
2024-05-01 18:45:00,SystemResetWarning,0820.4,5.00,000.00,025.9,025.4,000.0,034.1,027.8,016.3,0000.0,0005.19,0017.84,0003.80
2024-05-01 18:46:00,SystemResetWarning,0820.6,5.00,000.00,026.0,025.5,000.0,034.1,027.9,016.4,0000.0,0005.21,0016.80,0003.82
2024-05-01 18:47:00,SystemResetWarning,0821.0,4.99,000.00,026.0,025.5,000.0,034.2,027.9,016.0,0000.0,0005.28,0016.57,0003.85
2024-05-01 18:48:00,SystemResetWarning,0820.8,5.00,000.00,026.0,025.6,000.0,034.2,028.0,016.0,0000.0,0005.28,0016.16,0003.87
2024-05-01 18:49:00,SystemResetWarning,0820.8,4.99,000.00,026.0,024.6,000.0,034.3,027.4,015.8,0000.0,0005.24,0015.51,0003.88
2024-05-01 18:50:00,SystemResetWarning,0820.3,5.01,000.00,025.5,022.3,000.0,034.3,026.1,016.1,0000.0,0005.26,0014.58,0003.90
2024-05-01 18:51:00,SystemResetWarning,0820.2,5.01,000.00,025.1,021.6,000.0,034.2,025.5,016.7,0000.0,0005.26,0014.84,0003.89
2024-05-01 18:52:00,SystemResetWarning,0820.2,5.01,000.00,024.9,022.0,000.0,034.1,025.7,017.1,0000.0,0005.33,0014.66,0003.90
2024-05-01 18:53:00,SystemResetWarning,0820.3,5.00,000.00,024.9,022.4,000.0,033.9,026.0,016.4,0000.0,0005.38,0014.76,0003.91
2024-05-01 18:54:00,SystemResetWarning,0820.4,4.99,000.00,024.9,022.8,000.0,033.8,026.4,016.4,0000.0,0005.39,0015.04,0003.93
2024-05-01 18:55:00,SystemResetWarning,0820.8,5.00,000.00,025.0,023.1,000.0,033.7,026.5,016.6,0000.0,0005.44,0014.66,0003.94
2024-05-01 18:56:00,SystemResetWarning,0820.7,5.02,000.00,025.0,023.4,000.0,033.7,026.7,016.6,0000.0,0005.42,0015.46,0003.94
2024-05-01 18:57:00,SystemResetWarning,0820.8,5.00,000.00,025.1,023.7,000.0,033.7,026.8,017.0,0000.0,0005.44,0016.41,0003.94
2024-05-01 18:58:00,SystemResetWarning,0820.5,4.98,000.00,025.1,023.9,000.0,033.7,026.9,016.8,0000.0,0005.41,0016.69,0003.95
2024-05-01 18:59:00,SystemResetWarning,0820.5,5.00,000.00,025.2,024.2,000.0,033.7,027.0,016.8,0000.0,0005.47,0018.25,0003.95
